Stations météo

Publicité
Sete, France (7641): Température de l'air & dewpoint: 20.06.2017 07:00:00 - 26.06.2017 07:00:00 (CEST)Sete, France (7641): Vitesse du vent & gusts: 20.06.2017 07:00:00 - 26.06.2017 07:00:00 (CEST)Sete, France (7641): Direction du vent: 20.06.2017 07:00:00 - 26.06.2017 07:00:00 (CEST)Sete, France (7641): reduced air pressure: 20.06.2017 07:00:00 - 26.06.2017 07:00:00 (CEST)Sete, France (7641): visibility: 20.06.2017 07:00:00 - 26.06.2017 07:00:00 (CEST)Sete, France (7641): Quantités de précipitations: 20.06.2017 07:00:00 - 26.06.2017 07:00:00 (CEST)
Date & Time tt [°C] td [°C] ff [km/h] ff [knt] fx [km/h] fx [knt] dd ppp [hPa] vv [km] rr [mm]
26.06.2017 07:00:00 22,8 13,8 3 2 7 4 SSE 1011,4 - 0,0
26.06.2017 06:00:00 23,1 14,6 4 2 23 13 SSW 1011,6 - 0,0
26.06.2017 05:00:00 24,0 12,9 13 7 29 16 NNE 1011,4 20 0,0
26.06.2017 04:00:00 24,0 14,4 16 9 27 15 NNE 1011,6 - 0,0
26.06.2017 03:00:00 23,8 16,1 16 9 24 13 NNE 1012,6 - 0,0
26.06.2017 02:00:00 23,9 17,9 20 11 34 18 NNE 1012,8 - 0,0
26.06.2017 01:00:00 24,6 17,8 19 11 32 18 NNE 1013,0 - 0,0
26.06.2017 00:00:00 25,2 17,7 16 8 29 15 N 1013,0 - 0,0
25.06.2017 23:00:00 24,4 17,9 14 8 27 15 W 1013,3 - 0,0
25.06.2017 22:00:00 23,9 17,4 14 8 37 20 WSW 1012,9 - 0,0
25.06.2017 21:00:00 23,3 18,4 19 11 36 19 WSW 1013,0 - 0,0
25.06.2017 20:00:00 23,6 18,5 17 9 36 19 SW 1012,9 25 0,0
25.06.2017 19:00:00 25,8 18,0 21 12 39 21 SW 1012,5 - 0,0
25.06.2017 18:00:00 27,6 15,9 23 12 49 27 SW 1012,6 - 0,0
25.06.2017 17:00:00 26,9 16,8 23 13 44 24 SSW 1013,4 25 0,0
25.06.2017 16:00:00 27,6 16,6 20 11 38 20 SSW 1014,1 - 0,0
25.06.2017 15:00:00 27,7 15,7 16 8 37 20 SW 1014,9 - 0,0
25.06.2017 14:00:00 28,2 14,1 16 9 40 22 SW 1015,6 25 0,0
25.06.2017 13:00:00 29,6 12,1 16 9 39 21 W 1016,2 - 0,0
25.06.2017 12:00:00 28,6 13,3 13 7 37 20 W 1016,6 - 0,0
25.06.2017 11:00:00 28,4 13,9 9 5 32 17 WNW 1016,6 25 0,0
25.06.2017 10:00:00 26,2 13,7 13 7 34 18 NW 1016,7 - 0,0
25.06.2017 09:00:00 24,1 13,9 16 9 36 19 NW 1017,0 - 0,0
25.06.2017 08:00:00 22,1 14,2 15 8 42 23 NNW 1016,3 25 0,0
25.06.2017 07:00:00 21,8 14,7 17 9 47 26 WNW 1016,6 - 0,0
25.06.2017 06:00:00 21,5 14,4 32 18 49 26 NNW 1015,7 - 0,0
25.06.2017 05:00:00 22,9 13,9 20 11 52 28 NW 1016,6 25 0,0
25.06.2017 04:00:00 23,2 13,7 20 11 46 25 NW 1016,7 - 0,0
25.06.2017 03:00:00 23,7 14,1 21 12 55 30 NW 1016,5 - 0,0
25.06.2017 02:00:00 24,1 14,5 16 9 39 21 NW 1016,2 - 0,0
25.06.2017 01:00:00 24,8 14,3 15 8 43 23 WNW 1016,2 - 0,0
25.06.2017 00:00:00 25,5 14,6 22 12 45 24 NW 1015,8 - 0,0
24.06.2017 23:00:00 26,2 15,0 20 11 42 23 NW 1015,6 - 0,0
24.06.2017 22:00:00 27,4 15,4 20 11 40 22 NW 1015,0 - 0,0
24.06.2017 21:00:00 28,9 16,1 15 8 35 19 NW 1014,1 - 0,0
24.06.2017 20:00:00 24,9 20,6 16 9 44 24 SW 1013,8 15 0,0
24.06.2017 19:00:00 24,9 21,0 21 12 46 25 SSW 1013,9 - 0,0
24.06.2017 18:00:00 25,7 20,9 26 14 48 26 SSW 1014,0 - 0,0
24.06.2017 17:00:00 27,2 20,5 28 15 44 24 SSW 1014,5 20 0,0
24.06.2017 16:00:00 28,2 19,7 20 11 35 19 SSW 1015,0 - 0,0
24.06.2017 15:00:00 28,5 18,6 20 11 34 18 SSW 1015,6 - 0,0
24.06.2017 14:00:00 28,6 18,7 15 8 31 17 SSW 1016,4 - 0,0
24.06.2017 13:00:00 29,5 18,6 13 7 30 16 SSW 1016,7 - 0,0
24.06.2017 12:00:00 31,4 16,2 12 7 25 14 SW 1016,9 - 0,0
24.06.2017 11:00:00 29,6 16,4 15 8 34 18 WNW 1017,1 20 0,0
24.06.2017 10:00:00 28,4 16,3 17 9 39 21 NNW 1017,4 - 0,0
24.06.2017 09:00:00 26,8 16,7 20 11 37 20 NW 1018,0 - 0,0
24.06.2017 08:00:00 25,5 17,2 20 11 40 22 NW 1018,0 20 0,0
24.06.2017 07:00:00 24,6 17,6 21 11 42 23 NW 1017,9 - 0,0
24.06.2017 06:00:00 24,3 18,0 21 12 43 23 NW 1017,9 - 0,0
24.06.2017 05:00:00 24,6 17,8 23 12 42 23 NW 1017,9 15 0,0
24.06.2017 04:00:00 24,6 17,8 23 13 44 24 NW 1018,0 - 0,0
24.06.2017 03:00:00 24,9 18,1 26 14 46 25 NW 1017,9 - 0,0
24.06.2017 02:00:00 24,6 18,8 21 12 39 21 WNW 1017,7 - 0,0
24.06.2017 01:00:00 25,1 18,5 19 10 43 23 WNW 1017,7 - 0,0
24.06.2017 00:00:00 25,5 18,7 17 9 40 22 WNW 1017,4 - 0,0
23.06.2017 23:00:00 26,3 18,7 18 10 38 21 WNW 1017,3 - 0,0
23.06.2017 22:00:00 27,5 19,0 13 7 32 17 NW 1017,0 - 0,0
23.06.2017 21:00:00 28,8 19,7 14 8 38 21 W 1016,6 - 0,0
23.06.2017 20:00:00 30,1 19,8 16 9 45 24 SW 1016,8 15 0,0
23.06.2017 19:00:00 28,2 21,0 18 10 38 20 SW 1016,1 - 0,0
23.06.2017 18:00:00 27,3 22,0 21 12 37 20 SSW 1016,7 - 0,0
23.06.2017 17:00:00 29,5 21,5 22 12 44 24 SSW 1016,9 15 0,0
23.06.2017 16:00:00 31,2 20,8 21 11 37 20 SSW 1017,0 - 0,0
23.06.2017 15:00:00 31,9 21,7 11 6 36 19 SSW 1017,5 - 0,0
23.06.2017 14:00:00 34,7 19,9 12 6 30 16 WSW 1017,8 15 0,0
23.06.2017 13:00:00 33,4 19,8 13 7 33 18 NW 1018,1 - 0,0
23.06.2017 12:00:00 31,7 19,7 13 7 29 15 WNW 1018,5 - 0,0
23.06.2017 11:00:00 30,2 19,6 10 5 31 17 WNW 1018,8 10 0,0
23.06.2017 10:00:00 27,8 20,4 9 5 23 13 WNW 1019,1 - 0,0
23.06.2017 09:00:00 25,3 21,0 8 4 22 12 WSW 1018,9 - 0,0
23.06.2017 08:00:00 23,1 21,5 4 2 10 5 W 1018,8 10 0,0
23.06.2017 07:00:00 22,4 21,0 3 2 11 6 SW 1018,4 - 0,0
23.06.2017 06:00:00 22,4 21,0 5 3 10 6 W 1018,2 - 0,0
23.06.2017 05:00:00 22,7 21,0 5 3 9 5 NNW 1017,8 - 0,0
23.06.2017 04:00:00 22,9 21,2 10 5 21 11 N 1017,8 - 0,0
23.06.2017 03:00:00 23,0 21,6 11 6 18 10 NE 1017,7 - 0,0
23.06.2017 02:00:00 23,1 21,9 8 5 18 10 ENE 1018,0 - 0,0
23.06.2017 01:00:00 23,1 21,9 8 4 21 11 ENE 1018,1 - 0,0
23.06.2017 00:00:00 23,3 22,1 9 5 18 10 E 1017,9 - 0,0
22.06.2017 23:00:00 23,3 21,7 4 2 9 5 ENE 1017,8 - 0,0
22.06.2017 22:00:00 23,5 21,6 3 1 10 5 SSE 1017,5 - 0,0
22.06.2017 21:00:00 23,6 21,5 6 4 18 10 SSW 1017,4 - 0,0
22.06.2017 20:00:00 24,0 21,5 12 6 21 11 SSW 1017,3 10 0,0
22.06.2017 19:00:00 24,5 21,4 14 7 22 12 S 1016,9 - 0,0
22.06.2017 18:00:00 27,0 21,5 10 6 20 11 S 1017,3 - 0,0
22.06.2017 17:00:00 26,6 21,8 9 5 16 8 SSE 1017,7 10 0,0
22.06.2017 16:00:00 24,6 21,3 8 4 17 9 ESE 1017,8 - 0,0
22.06.2017 15:00:00 25,1 21,2 8 5 19 11 ESE 1018,0 - 0,0
22.06.2017 14:00:00 25,8 21,2 10 5 21 12 ESE 1018,2 15 0,0
22.06.2017 13:00:00 27,5 20,8 9 5 20 11 E 1018,4 - 0,0
22.06.2017 12:00:00 26,7 20,5 9 5 27 15 E 1018,5 - 0,0
22.06.2017 11:00:00 24,3 20,4 14 8 26 14 E 1018,5 10 0,0
22.06.2017 10:00:00 23,0 20,1 8 4 22 12 E 1018,4 - 0,0
22.06.2017 09:00:00 22,4 20,1 13 7 24 13 E 1018,0 - 0,0
22.06.2017 08:00:00 22,1 20,4 10 5 22 12 ENE 1017,7 10 0,0
22.06.2017 07:00:00 21,8 20,3 9 5 20 11 ENE 1017,0 - 0,0
22.06.2017 06:00:00 21,9 20,4 7 4 16 8 E 1016,8 - 0,0
22.06.2017 05:00:00 22,0 20,5 8 5 18 10 E 1016,3 - 0,0
22.06.2017 04:00:00 22,1 20,4 5 3 13 7 ENE 1016,6 - 0,0
22.06.2017 03:00:00 22,1 20,6 9 5 16 8 N 1016,7 - 0,0
22.06.2017 02:00:00 21,9 20,4 6 4 13 7 NNE 1016,7 - 0,0
22.06.2017 01:00:00 22,0 20,3 4 2 16 9 E 1016,8 - 0,0
22.06.2017 00:00:00 22,3 20,6 7 4 16 9 E 1016,7 - 0,0
21.06.2017 23:00:00 22,5 20,6 8 4 17 9 E 1016,7 - 0,0
21.06.2017 22:00:00 22,7 20,4 4 2 16 9 E 1016,4 - 0,0
21.06.2017 21:00:00 23,2 20,5 7 4 13 7 E 1016,4 - 0,0
21.06.2017 20:00:00 24,1 20,6 7 4 19 10 SSE 1015,9 10 0,0
21.06.2017 19:00:00 25,5 20,7 9 5 17 9 SSE 1015,4 - 0,0
21.06.2017 18:00:00 25,5 20,7 9 5 20 11 S 1015,5 - 0,0
21.06.2017 17:00:00 25,5 21,0 10 5 18 10 SSE 1015,6 10 0,0
21.06.2017 16:00:00 24,6 20,9 9 5 22 12 ESE 1015,3 - 0,0
21.06.2017 15:00:00 24,4 20,7 12 6 22 12 ESE 1015,7 - 0,0
21.06.2017 14:00:00 25,0 20,5 10 5 21 12 E 1016,3 10 0,0
21.06.2017 13:00:00 24,7 21,0 11 6 21 11 ESE 1016,8 - 0,0
21.06.2017 12:00:00 26,4 20,9 12 7 26 14 E 1016,9 - 0,0
21.06.2017 11:00:00 25,8 20,8 11 6 22 12 E 1016,7 15 0,0
21.06.2017 10:00:00 23,8 20,9 10 6 22 12 E 1016,8 - 0,0
21.06.2017 09:00:00 23,1 20,1 10 5 22 12 E 1016,4 - 0,0
21.06.2017 08:00:00 22,7 19,9 9 5 20 11 NE 1016,1 10 0,0
21.06.2017 07:00:00 22,5 20,0 7 4 19 10 ENE 1015,9 - 0,0
21.06.2017 06:00:00 22,5 20,0 10 5 23 12 ENE 1015,8 - 0,0
21.06.2017 05:00:00 22,4 19,8 12 7 27 14 ENE 1015,7 - 0,0
21.06.2017 04:00:00 22,5 20,6 11 6 26 14 ENE 1015,8 - 0,0
21.06.2017 03:00:00 22,1 20,6 9 5 19 10 ENE 1016,4 - 0,0
21.06.2017 02:00:00 22,4 21,2 6 3 14 7 E 1016,8 - 0,0
21.06.2017 01:00:00 22,6 21,4 8 4 16 9 E 1017,4 - 0,0
21.06.2017 00:00:00 22,7 21,3 9 5 20 11 E 1017,2 - 0,0
20.06.2017 23:00:00 23,0 21,4 7 4 15 8 E 1017,2 - 0,0
20.06.2017 22:00:00 23,0 20,5 3 2 13 7 ESE 1017,1 - 0,0
20.06.2017 21:00:00 23,4 20,7 4 2 14 7 SE 1017,2 - 0,0
20.06.2017 20:00:00 23,8 21,1 6 3 16 9 SSE 1017,4 10 0,0
20.06.2017 19:00:00 23,7 21,0 8 4 16 8 ESE 1017,0 - 0,0
20.06.2017 18:00:00 24,5 20,8 6 4 16 8 ESE 1017,6 - 0,0
20.06.2017 17:00:00 24,3 21,0 7 4 16 9 ESE 1018,0 - 0,0
20.06.2017 16:00:00 24,4 20,9 9 5 19 10 ESE 1018,3 - 0,0
20.06.2017 15:00:00 24,2 21,1 9 5 21 12 ESE 1018,8 - 0,0
20.06.2017 14:00:00 23,8 21,1 9 5 25 13 E 1019,3 10 0,0
20.06.2017 13:00:00 23,1 20,6 13 7 27 15 E 1019,5 - 0,0
20.06.2017 12:00:00 22,6 20,5 13 7 32 17 E 1019,5 - 0,0
20.06.2017 11:00:00 22,2 19,9 15 8 33 18 ENE 1019,5 8 0,0
20.06.2017 10:00:00 21,8 19,5 16 8 35 19 ENE 1019,5 - 0,0
20.06.2017 09:00:00 21,7 19,4 16 9 39 21 ENE 1019,2 - 0,0
20.06.2017 08:00:00 21,6 19,2 17 9 37 20 ENE 1019,1 8 0,0
20.06.2017 07:00:00 21,1 19,6 16 9 35 19 NE 1019,2 - 0,0

tt = Température de l'air
td = dewpoint
ff = Vitesse du vent
fx = gusts
dd = Direction du vent
ppp = reduced air pressure
vv = visibility
rr = Quantités de précipitations

stations d'obs. à proximité